Seattle, WA
on Monday, December 24, 2012

Monday
Previous Day Next Day
Daily Summary
 ActualAverageRecord
Temperature
Mean Temperature °F 40°F  
Max Temperature 42°F 45°F 62°F (2005)
Min Temperature 37°F 35°F 16°F (1948)
Degree Days
Heating Degree Days 25 25  
Month to date heating degree days 545 585  
Since 1 July heating degree days 1572 1768  
Cooling Degree Days 0 0  
Month to date cooling degree days 0 0  
Year to date cooling degree days 177 189  
Moisture
Dew Point 36°F   
Average Humidity 89    
Maximum Humidity 92    
Minimum Humidity 85    
Precipitation
Precipitation 0.01 in 0.17 in 0.75 in (1980)
Month to date precipitation 5.92 4.20  
Year to date precipitation 47.33 36.34  
Snow
Snow 0.00 in in 2.60 in (2008)
Month to date snowfall 0.6  
Since 1 July snowfall 0.6  
Snow Depth 0.00 in   
Wind
Wind Speed 6 mph   
Max Wind Speed 14 mph   
Max Gust Speed 18 mph   
Visibility 10 miles   
Events Rain   

Key: T is trace of precipitation, MM is missing value
Source: NWS Daily Summary
Time(PST)TemperatureDew PointHumidity Pressure Visibility Wind DirectionWind SpeedGust SpeedPrecipitationEvents Conditions
12:53 AM 39.0°F 36.0°F 89% 29.87 in 10.0 miles SSW 8.1 mph - N/A   Overcast
1:53 AM 39.0°F 36.0°F 89% 29.89 in 10.0 miles SSW 9.2 mph - N/A   Overcast
2:53 AM 39.0°F 37.0°F 93% 29.93 in 9.0 miles SSW 4.6 mph - N/A   Overcast
3:26 AM 39.2°F 35.6°F 87% 29.92 in 8.0 miles SSE 6.9 mph - N/A   Overcast
3:53 AM 39.2°F 35.6°F 87% 29.93 in 8.0 miles South 6.9 mph - N/A   Overcast
4:41 AM 39.2°F 35.6°F 87% 29.95 in 7.0 miles South 4.6 mph - 0.00 in Rain Light Rain
4:53 AM 39.0°F 37.0°F 93% 29.99 in 10.0 miles South 4.6 mph - 0.00 in   Overcast
5:38 AM 39.2°F 35.6°F 87% 29.99 in 10.0 miles Calm Calm - N/A   Overcast
5:53 AM 39.0°F 36.0°F 89% 30.02 in 10.0 miles South 4.6 mph - 0.00 in Rain Light Rain
6:53 AM 39.0°F 36.0°F 89% 30.04 in 10.0 miles South 4.6 mph - 0.00 in   Mostly Cloudy
7:53 AM 37.9°F 36.0°F 93% 30.07 in 10.0 miles Calm Calm - N/A   Overcast
8:53 AM 39.9°F 37.0°F 89% 30.11 in 10.0 miles SSE 3.5 mph - N/A   Mostly Cloudy
9:10 AM 41.0°F 37.4°F 87% 30.09 in 10.0 miles South 4.6 mph - N/A   Mostly Cloudy
9:53 AM 39.9°F 37.0°F 89% 30.14 in 10.0 miles SSE 4.6 mph - N/A   Mostly Cloudy
10:53 AM 41.0°F 37.0°F 86% 30.16 in 10.0 miles SSE 6.9 mph - N/A   Mostly Cloudy
11:07 AM 41.0°F 37.4°F 87% 30.13 in 10.0 miles South 8.1 mph - N/A   Overcast
11:53 AM 41.0°F 37.0°F 86% 30.16 in 10.0 miles SW 9.2 mph - N/A   Overcast
11:57 AM 41.0°F 37.4°F 87% 30.13 in 10.0 miles SSW 6.9 mph - N/A   Overcast
12:53 PM 39.9°F 36.0°F 86% 30.18 in 10.0 miles SSW 8.1 mph - N/A   Overcast
1:53 PM 41.0°F 37.9°F 89% 30.18 in 10.0 miles WSW 8.1 mph - N/A   Overcast
2:53 PM 42.1°F 39.0°F 89% 30.19 in 8.0 miles South 3.5 mph - 0.00 in Rain Light Rain
3:53 PM 42.1°F 37.0°F 82% 30.19 in 10.0 miles SSW 11.5 mph - 0.01 in Rain Light Rain
4:53 PM 41.0°F 37.9°F 89% 30.19 in 10.0 miles South 6.9 mph - 0.00 in Rain Light Rain
5:53 PM 41.0°F 37.9°F 89% 30.19 in 10.0 miles SE 4.6 mph - 0.00 in   Overcast
6:53 PM 41.0°F 37.0°F 86% 30.16 in 10.0 miles ESE 6.9 mph - 0.00 in   Overcast
7:53 PM 39.9°F 36.0°F 86% 30.14 in 10.0 miles SE 6.9 mph - N/A   Mostly Cloudy
8:53 PM 39.0°F 36.0°F 89% 30.13 in 10.0 miles SE 5.8 mph - N/A   Scattered Clouds
9:53 PM 39.9°F 35.1°F 83% 30.13 in 10.0 miles ESE 5.8 mph - N/A   Scattered Clouds
10:53 PM 39.0°F 35.1°F 86% 30.11 in 10.0 miles East 8.1 mph - 0.00 in   Mostly Cloudy
11:53 PM 39.0°F 34.0°F 82% 30.07 in 10.0 miles East 6.9 mph - N/A   Mostly Cloudy
Moon Phase
Dec. 24 Dec. 28 Jan. 04 Jan. 11 Jan. 18
Sunrise:07:55 AM (PST) Moon Rise:01:58 PM (PST)12/24
Sunset:04:22 PM (PST) Moon Set:04:33 AM (PST)12/24

Copyright © 2014 The Weather Underground, Inc.